,,,PA_Meas_PMT16A,,PR_Meas_QMR101_102,,RH_Meas_QMH101,,SR_Meas_QMS101,,TA_Meas_QMH101,,GenWind,,GenWind,
date,time,status,PA,status,PR,status,RH,status,SR,status,TA,status,DirAvg,status,SpdAvg,
2009-02-04, 00:00:05,VALID,998.677,VALID,0,VALID,94.1648,VALID,0,VALID,24.1324,VALID,167,VALID,0.842578,
2009-02-04, 00:01:05,VALID,998.695,VALID,0,VALID,94.325,VALID,0,VALID,24.1519,VALID,157,VALID,0.799609,
2009-02-04, 00:02:05,VALID,998.701,VALID,0,VALID,94.2411,VALID,0,VALID,24.1519,VALID,164,VALID,1.17461,
2009-02-04, 00:03:05,VALID,998.682,VALID,0,VALID,94.2029,VALID,0,VALID,24.1519,VALID,167,VALID,1.06055,
2009-02-04, 00:04:05,VALID,998.691,VALID,0,VALID,94.2258,VALID,0,VALID,24.1732,VALID,171,VALID,1.35469,
2009-02-04, 00:05:05,VALID,998.706,VALID,0,VALID,94.0503,VALID,0,VALID,24.1305,VALID,169,VALID,1.25937,
2009-02-04, 00:06:05,VALID,998.707,VALID,0,VALID,94.0198,VALID,0,VALID,24.1519,VALID,172,VALID,1.59844,
2009-02-04, 00:07:05,VALID,998.678,VALID,0,VALID,93.9206,VALID,0,VALID,24.1714,VALID,172,VALID,1.37891,
2009-02-04, 00:08:05,VALID,998.699,VALID,0,VALID,93.9054,VALID,0,VALID,24.1714,VALID,177,VALID,1.39219,
2009-02-04, 00:09:05,VALID,998.661,VALID,0,VALID,94.0198,VALID,0,VALID,24.1909,VALID,168,VALID,1.78867,
2009-02-04, 00:10:05,VALID,998.662,VALID,0,VALID,94.3021,VALID,0,VALID,24.2299,VALID,175,VALID,1.78594,
2009-02-04, 00:11:05,VALID,998.659,VALID,0,VALID,94.2029,VALID,0,VALID,24.2104,VALID,177,VALID,2.17148,
2009-02-04, 00:12:05,VALID,998.66,VALID,0,VALID,94.1877,VALID,0,VALID,24.2104,VALID,174,VALID,1.8875,
2009-02-04, 00:13:05,VALID,998.676,VALID,0,VALID,94.2411,VALID,0,VALID,24.2104,VALID,185,VALID,1.78086,
2009-02-04, 00:14:05,VALID,998.662,VALID,0,VALID,94.2868,VALID,0,VALID,24.1909,VALID,178,VALID,1.68086,
2009-02-04, 00:15:05,VALID,998.688,VALID,0,VALID,93.974,VALID,0,VALID,24.1714,VALID,176,VALID,1.97773,
2009-02-04, 00:16:05,VALID,998.676,VALID,0,VALID,93.9664,VALID,0,VALID,24.1519,VALID,178,VALID,1.94609,
2009-02-04, 00:17:05,VALID,998.652,VALID,0,VALID,94.1953,VALID,0,VALID,24.1714,VALID,177,VALID,1.6793,
2009-02-04, 00:18:05,VALID,998.639,VALID,0,VALID,94.119,VALID,0,VALID,24.1519,VALID,185,VALID,1.92344,
2009-02-04, 00:19:05,VALID,998.605,VALID,0,VALID,94.1419,VALID,0,VALID,24.1324,VALID,177,VALID,1.46445,
2009-02-04, 00:20:05,VALID,998.588,VALID,0,VALID,94.2487,VALID,0,VALID,24.1537,VALID,178,VALID,1.08711,
2009-02-04, 00:21:05,VALID,998.583,VALID,0,VALID,94.3631,VALID,0,VALID,24.1324,VALID,186,VALID,0.685156,
2009-02-04, 00:22:05,VALID,998.567,VALID,0,VALID,94.3708,VALID,0,VALID,24.1324,VALID,184,VALID,0.970312,
2009-02-04, 00:23:05,VALID,998.578,VALID,0,VALID,94.3555,VALID,0,VALID,24.1342,VALID,174,VALID,0.642187,
2009-02-04, 00:24:05,VALID,998.575,VALID,0,VALID,94.4547,VALID,0,VALID,24.1324,VALID,183,VALID,0.625781,
2009-02-04, 00:25:05,VALID,998.589,VALID,0,VALID,94.4394,VALID,0,VALID,24.1128,VALID,169,VALID,0.671484,
2009-02-04, 00:26:05,VALID,998.578,VALID,0,VALID,94.5234,VALID,0,VALID,24.1128,VALID,178,VALID,0.965234,
2009-02-04, 00:27:05,VALID,998.586,VALID,0,VALID,94.3555,VALID,0,VALID,24.0915,VALID,177,VALID,1.01094,
2009-02-04, 00:28:05,VALID,998.578,VALID,0,VALID,94.386,VALID,0,VALID,24.1128,VALID,174,VALID,1.10508,
2009-02-04, 00:29:05,VALID,998.57,VALID,0,VALID,94.264,VALID,0,VALID,24.0933,VALID,182,VALID,1.40977,
2009-02-04, 00:30:05,VALID,998.534,VALID,0,VALID,94.1343,VALID,0,VALID,24.0738,VALID,169,VALID,1.40781,
2009-02-04, 00:31:05,VALID,998.509,VALID,0,VALID,94.2029,VALID,0,VALID,24.0933,VALID,171,VALID,1.26875,
2009-02-04, 00:32:05,VALID,998.484,VALID,0,VALID,94.18,VALID,0,VALID,24.0933,VALID,166,VALID,1.19805,
2009-02-04, 00:33:05,VALID,998.471,VALID,0,VALID,94.325,VALID,0,VALID,24.1128,VALID,199,VALID,0.892578,
2009-02-04, 00:34:05,VALID,998.455,VALID,0,VALID,94.2563,VALID,0,VALID,24.1128,VALID,204,VALID,0.754297,
2009-02-04, 00:35:05,VALID,998.423,VALID,0,VALID,94.2334,VALID,0,VALID,24.111,VALID,211,VALID,0.955078,
2009-02-04, 00:36:05,VALID,998.422,VALID,0.5,VALID,94.0808,VALID,0,VALID,24.1128,VALID,225,VALID,0.845312,
2009-02-04, 00:37:05,VALID,998.416,VALID,0,VALID,93.9435,VALID,0,VALID,24.1128,VALID,230,VALID,0.523828,
2009-02-04, 00:38:05,VALID,998.425,VALID,0,VALID,93.9511,VALID,0,VALID,24.111,VALID,241,VALID,0.453906,
2009-02-04, 00:39:05,VALID,998.438,VALID,0,VALID,94.0427,VALID,0,VALID,24.1324,VALID,239,VALID,0.516406,
2009-02-04, 00:40:05,VALID,998.42,VALID,0,VALID,94.1571,VALID,0,VALID,24.1324,VALID,256,VALID,0.56875,
2009-02-04, 00:41:05,VALID,998.443,VALID,0,VALID,94.1724,VALID,0,VALID,24.1324,VALID,251,VALID,0.612891,
2009-02-04, 00:42:05,VALID,998.428,VALID,0,VALID,94.2182,VALID,0,VALID,24.0933,VALID,250,VALID,0.316406,
2009-02-04, 00:43:05,VALID,998.395,VALID,0,VALID,94.2487,VALID,0,VALID,24.0933,VALID,229,VALID,0.507422,
2009-02-04, 00:44:05,VALID,998.353,VALID,0,VALID,94.325,VALID,0,VALID,24.0933,VALID,236,VALID,0.508984,
2009-02-04, 00:45:05,VALID,998.361,VALID,0,VALID,94.4013,VALID,0,VALID,24.0933,VALID,232,VALID,0.643359,
2009-02-04, 00:46:05,VALID,998.347,VALID,0,VALID,94.4394,VALID,0,VALID,24.0738,VALID,205,VALID,0.983594,
2009-02-04, 00:47:05,VALID,998.311,VALID,0,VALID,94.4623,VALID,0,VALID,24.0543,VALID,203,VALID,0.865234,
2009-02-04, 00:48:05,VALID,998.307,VALID,0,VALID,94.5386,VALID,0,VALID,24.0738,VALID,189,VALID,0.760547,
2009-02-04, 00:49:05,VALID,998.287,VALID,0,VALID,94.4623,VALID,0,VALID,24.0543,VALID,178,VALID,1.19609,
2009-02-04, 00:50:05,VALID,998.29,VALID,0,VALID,94.3631,VALID,0,VALID,24.0543,VALID,190,VALID,1.10742,
2009-02-04, 00:51:05,VALID,998.243,VALID,0,VALID,94.3479,VALID,0,VALID,24.0543,VALID,194,VALID,1.01406,
2009-02-04, 00:52:05,VALID,998.238,VALID,0,VALID,94.3021,VALID,0,VALID,24.0543,VALID,173,VALID,1.18359,
2009-02-04, 00:53:05,VALID,998.169,VALID,0,VALID,94.3631,VALID,0,VALID,24.0543,VALID,187,VALID,0.853125,
2009-02-04, 00:54:05,VALID,998.17,VALID,0,VALID,94.3708,VALID,0,VALID,24.0543,VALID,181,VALID,1.21797,
2009-02-04, 00:55:05,VALID,998.162,VALID,0,VALID,94.4013,VALID,0,VALID,24.0543,VALID,179,VALID,1.12031,
2009-02-04, 00:56:05,VALID,998.109,VALID,0,VALID,94.3403,VALID,0,VALID,24.0348,VALID,188,VALID,1.09375,
2009-02-04, 00:57:05,VALID,998.102,VALID,0,VALID,94.3708,VALID,0,VALID,24.0348,VALID,188,VALID,0.924609,
2009-02-04, 00:58:05,VALID,998.083,VALID,0,VALID,94.4471,VALID,0,VALID,24.0348,VALID,173,VALID,0.797266,
2009-02-04, 00:59:05,VALID,998.066,VALID,0,VALID,94.5768,VALID,0,VALID,24.0543,VALID,189,VALID,0.581641,
2009-02-04, 01:00:05,VALID,998.024,VALID,0,VALID,94.5157,VALID,0,VALID,24.0348,VALID,206,VALID,0.710938,
2009-02-04, 01:01:05,VALID,998.034,VALID,0,VALID,94.6226,VALID,0,VALID,24.0348,VALID,160,VALID,0.972266,
2009-02-04, 01:02:05,VALID,998.006,VALID,0,VALID,94.5691,VALID,0,VALID,24.0153,VALID,161,VALID,1.06055,
2009-02-04, 01:03:05,VALID,998.007,VALID,0,VALID,94.5844,VALID,0,VALID,24.0348,VALID,161,VALID,1.43867,
2009-02-04, 01:04:05,VALID,997.987,VALID,0,VALID,94.6073,VALID,0,VALID,24.0153,VALID,165,VALID,1.27305,
2009-02-04, 01:05:05,VALID,998.013,VALID,0,VALID,94.6912,VALID,0,VALID,24.0348,VALID,173,VALID,1.42305,
2009-02-04, 01:06:05,VALID,997.977,VALID,0,VALID,94.8057,VALID,0,VALID,24.0329,VALID,184,VALID,1.40234,
2009-02-04, 01:07:05,VALID,998.01,VALID,0,VALID,94.7141,VALID,0,VALID,24.0348,VALID,195,VALID,1.56445,
2009-02-04, 01:08:05,VALID,997.98,VALID,0,VALID,94.7523,VALID,0,VALID,24.0153,VALID,190,VALID,0.735156,
2009-02-04, 01:09:05,VALID,997.97,VALID,0,VALID,94.7141,VALID,0,VALID,23.9939,VALID,184,VALID,1.66172,
2009-02-04, 01:10:05,VALID,997.989,VALID,0,VALID,94.7065,VALID,0.112286,VALID,24.0348,VALID,204,VALID,1.28164,
2009-02-04, 01:11:05,VALID,997.945,VALID,0,VALID,94.6683,VALID,0,VALID,23.9957,VALID,193,VALID,1.01602,
2009-02-04, 01:12:05,VALID,997.928,VALID,0,VALID,94.6378,VALID,0,VALID,23.9957,VALID,189,VALID,1.37617,
2009-02-04, 01:13:05,VALID,997.947,VALID,0,VALID,94.5997,VALID,0,VALID,23.9957,VALID,193,VALID,1.14727,
2009-02-04, 01:14:05,VALID,997.9,VALID,0,VALID,94.7141,VALID,0,VALID,23.9957,VALID,193,VALID,1.23047,
2009-02-04, 01:15:05,VALID,997.881,VALID,0,VALID,94.7599,VALID,0,VALID,24.0153,VALID,185,VALID,1.09102,
2009-02-04, 01:16:05,VALID,997.877,VALID,0,VALID,94.7751,VALID,0,VALID,23.9939,VALID,221,VALID,1.03984,
2009-02-04, 01:17:05,VALID,997.833,VALID,0,VALID,94.6836,VALID,0,VALID,23.9957,VALID,195,VALID,1.30742,
2009-02-04, 01:18:05,VALID,997.822,VALID,0,VALID,94.6836,VALID,0,VALID,23.9957,VALID,222,VALID,1.31484,
2009-02-04, 01:19:05,VALID,997.789,VALID,0,VALID,94.6454,VALID,0,VALID,23.9939,VALID,228,VALID,1.71328,
2009-02-04, 01:20:05,VALID,997.744,VALID,0,VALID,94.5768,VALID,0,VALID,23.9549,VALID,220,VALID,1.19687,
2009-02-04, 01:21:05,VALID,997.763,VALID,0,VALID,94.5844,VALID,0,VALID,23.9762,VALID,217,VALID,1.10859,
2009-02-04, 01:22:05,VALID,997.725,VALID,0,VALID,94.5005,VALID,0,VALID,23.9567,VALID,208,VALID,1.425,
2009-02-04, 01:23:05,VALID,997.736,VALID,0,VALID,94.5386,VALID,0,VALID,23.9567,VALID,215,VALID,1.47109,
2009-02-04, 01:24:05,VALID,997.684,VALID,0,VALID,94.5997,VALID,0,VALID,23.9762,VALID,206,VALID,1.33828,
2009-02-04, 01:25:05,VALID,997.671,VALID,0,VALID,94.6073,VALID,0,VALID,23.9567,VALID,225,VALID,0.978516,
2009-02-04, 01:26:05,VALID,997.681,VALID,0,VALID,94.676,VALID,0,VALID,23.9567,VALID,228,VALID,1.18359,
2009-02-04, 01:27:05,VALID,997.665,VALID,0,VALID,94.5997,VALID,0,VALID,23.9372,VALID,230,VALID,1.59453,
2009-02-04, 01:28:05,VALID,997.656,VALID,0,VALID,94.676,VALID,0,VALID,23.9372,VALID,219,VALID,0.979297,
2009-02-04, 01:29:05,VALID,997.618,VALID,0,VALID,94.6531,VALID,0,VALID,23.9372,VALID,211,VALID,1.20117,
2009-02-04, 01:30:05,VALID,997.609,VALID,0,VALID,94.5997,VALID,0,VALID,23.9177,VALID,212,VALID,1.36406,
2009-02-04, 01:31:05,VALID,997.596,VALID,0,VALID,94.6226,VALID,0,VALID,23.8982,VALID,208,VALID,1.66406,
2009-02-04, 01:32:05,VALID,997.58,VALID,0,VALID,94.6607,VALID,0,VALID,23.8982,VALID,208,VALID,2.04531,
2009-02-04, 01:33:05,VALID,997.551,VALID,0,VALID,94.6607,VALID,0,VALID,23.8982,VALID,202,VALID,1.52344,
2009-02-04, 01:34:05,VALID,997.517,VALID,0,VALID,94.7217,VALID,0,VALID,23.8982,VALID,218,VALID,1,
2009-02-04, 01:35:05,VALID,997.5,VALID,0,VALID,94.6912,VALID,0,VALID,23.8982,VALID,217,VALID,1.49688,
2009-02-04, 01:36:05,VALID,997.493,VALID,0,VALID,94.6988,VALID,0,VALID,23.8982,VALID,213,VALID,1.08242,
2009-02-04, 01:37:05,VALID,997.458,VALID,0,VALID,94.676,VALID,0,VALID,23.8982,VALID,208,VALID,1.26523,
2009-02-04, 01:38:05,VALID,997.431,VALID,0,VALID,94.6454,VALID,0,VALID,23.8786,VALID,190,VALID,1.41992,
2009-02-04, 01:39:05,VALID,997.424,VALID,0,VALID,94.6836,VALID,0,VALID,23.8982,VALID,201,VALID,1.17305,
2009-02-04, 01:40:05,VALID,997.429,VALID,0,VALID,94.531,VALID,0,VALID,23.8786,VALID,202,VALID,0.604688,
2009-02-04, 01:41:05,VALID,997.426,VALID,0,VALID,94.5462,VALID,0,VALID,23.8573,VALID,183,VALID,1.37148,
2009-02-04, 01:42:05,VALID,997.418,VALID,0,VALID,94.4928,VALID,0,VALID,23.8786,VALID,191,VALID,1.21172,
2009-02-04, 01:43:05,VALID,997.405,VALID,0,VALID,94.4394,VALID,0,VALID,23.8591,VALID,189,VALID,1.05391,
2009-02-04, 01:44:05,VALID,997.394,VALID,0,VALID,94.386,VALID,0,VALID,23.8591,VALID,181,VALID,1.06602,
2009-02-04, 01:45:05,VALID,997.403,VALID,0,VALID,94.4165,VALID,0,VALID,23.8591,VALID,192,VALID,1.05586,
2009-02-04, 01:46:05,VALID,997.381,VALID,0,VALID,94.3403,VALID,0,VALID,23.8591,VALID,181,VALID,1.03984,
2009-02-04, 01:47:05,VALID,997.404,VALID,0,VALID,94.3403,VALID,0,VALID,23.8396,VALID,181,VALID,1.12148,
2009-02-04, 01:48:05,VALID,997.384,VALID,0,VALID,94.3631,VALID,0,VALID,23.8396,VALID,188,VALID,0.483984,
2009-02-04, 01:49:05,VALID,997.353,VALID,0,VALID,94.3708,VALID,0,VALID,23.8396,VALID,190,VALID,0.199609,
2009-02-04, 01:50:05,VALID,997.359,VALID,0,VALID,94.47,VALID,0,VALID,23.8378,VALID,190,VALID,0.298828,
2009-02-04, 01:51:05,VALID,997.376,VALID,0,VALID,94.4547,VALID,0,VALID,23.8396,VALID,254,VALID,0.394922,
2009-02-04, 01:52:05,VALID,997.344,VALID,0,VALID,94.47,VALID,0,VALID,23.8183,VALID,259,VALID,0.427344,
2009-02-04, 01:53:05,VALID,997.299,VALID,0,VALID,94.47,VALID,0,VALID,23.8396,VALID,331,VALID,0.475,
2009-02-04, 01:54:05,VALID,997.341,VALID,0,VALID,94.4852,VALID,0,VALID,23.8201,VALID,331,VALID,0.487891,
2009-02-04, 01:55:05,VALID,997.326,VALID,0,VALID,94.5157,VALID,0,VALID,23.8201,VALID,323,VALID,0.428516,
2009-02-04, 01:56:05,VALID,997.322,VALID,0,VALID,94.5615,VALID,0,VALID,23.8201,VALID,323,VALID,0.353516,
2009-02-04, 01:57:05,VALID,997.284,VALID,0,VALID,94.5844,VALID,0,VALID,23.8006,VALID,323,VALID,0.276172,
2009-02-04, 01:58:05,VALID,997.277,VALID,0,VALID,94.6454,VALID,0,VALID,23.8006,VALID,323,VALID,0.0515625,
2009-02-04, 01:59:05,VALID,997.285,VALID,0,VALID,94.6454,VALID,0,VALID,23.8006,VALID,323,VALID,0,
2009-02-04, 02:00:05,VALID,997.261,VALID,0,VALID,94.6836,VALID,0,VALID,23.7616,VALID,323,VALID,0,
2009-02-04, 02:01:05,VALID,997.237,VALID,0,VALID,94.7141,VALID,0,VALID,23.7616,VALID,323,VALID,0,
2009-02-04, 02:02:05,VALID,997.238,VALID,0,VALID,94.737,VALID,0,VALID,23.7207,VALID,323,VALID,0,
2009-02-04, 02:03:05,VALID,997.227,VALID,0,VALID,94.7828,VALID,0,VALID,23.742,VALID,323,VALID,0.350781,
2009-02-04, 02:04:05,VALID,997.221,VALID,0,VALID,94.7523,VALID,0,VALID,23.742,VALID,323,VALID,0.341406,
2009-02-04, 02:05:05,VALID,997.203,VALID,0,VALID,94.7904,VALID,0,VALID,23.742,VALID,323,VALID,0.252344,
2009-02-04, 02:06:05,VALID,997.185,VALID,0,VALID,94.7828,VALID,0,VALID,23.742,VALID,323,VALID,0.289063,
2009-02-04, 02:07:05,VALID,997.171,VALID,0,VALID,94.8133,VALID,0,VALID,23.7438,VALID,323,VALID,0.198437,
2009-02-04, 02:08:05,VALID,997.158,VALID,0,VALID,94.8438,VALID,0,VALID,23.7225,VALID,323,VALID,0.157813,
2009-02-04, 02:09:05,VALID,997.141,VALID,0,VALID,94.8896,VALID,0,VALID,23.7225,VALID,323,VALID,0,
2009-02-04, 02:10:05,VALID,997.121,VALID,0,VALID,94.8972,VALID,0,VALID,23.7225,VALID,323,VALID,0,
2009-02-04, 02:11:05,VALID,997.086,VALID,0,VALID,94.9125,VALID,0,VALID,23.7225,VALID,323,VALID,0.0980469,
2009-02-04, 02:12:05,VALID,997.112,VALID,0,VALID,94.9277,VALID,0,VALID,23.703,VALID,323,VALID,0.246484,
2009-02-04, 02:13:05,VALID,997.065,VALID,0,VALID,94.9125,VALID,0,VALID,23.6817,VALID,323,VALID,0.25,
2009-02-04, 02:14:05,VALID,997.061,VALID,0,VALID,94.9354,VALID,0,VALID,23.703,VALID,323,VALID,0.278125,
2009-02-04, 02:15:05,VALID,997.046,VALID,0,VALID,94.9354,VALID,0,VALID,23.7048,VALID,323,VALID,0.234766,
2009-02-04, 02:16:05,VALID,997.018,VALID,0,VALID,94.9506,VALID,0,VALID,23.703,VALID,323,VALID,0.16875,
2009-02-04, 02:17:05,VALID,997.006,VALID,0,VALID,94.9888,VALID,0,VALID,23.6835,VALID,323,VALID,0,
2009-02-04, 02:18:05,VALID,996.983,VALID,0,VALID,95.0193,VALID,0,VALID,23.703,VALID,323,VALID,0.342187,
2009-02-04, 02:19:05,VALID,996.976,VALID,0,VALID,95.0498,VALID,0,VALID,23.703,VALID,323,VALID,0.117969,
2009-02-04, 02:20:05,VALID,996.943,VALID,0,VALID,95.1108,VALID,0,VALID,23.7225,VALID,323,VALID,0.233984,
2009-02-04, 02:21:05,VALID,996.954,VALID,0,VALID,95.0803,VALID,0,VALID,23.7225,VALID,324,VALID,0.504297,
2009-02-04, 02:22:05,VALID,996.955,VALID,0,VALID,95.0803,VALID,0,VALID,23.7225,VALID,105,VALID,0.541406,
2009-02-04, 02:23:05,VALID,996.929,VALID,0,VALID,95.088,VALID,0,VALID,23.7225,VALID,105,VALID,0.758594,
2009-02-04, 02:24:05,VALID,996.918,VALID,0,VALID,95.0345,VALID,0,VALID,23.742,VALID,105,VALID,1.00781,
2009-02-04, 02:25:05,VALID,996.925,VALID,0,VALID,94.9964,VALID,0,VALID,23.742,VALID,102,VALID,1.01172,
2009-02-04, 02:26:05,VALID,996.893,VALID,0,VALID,94.9659,VALID,0,VALID,23.742,VALID,106,VALID,1.0543,
2009-02-04, 02:27:05,VALID,996.912,VALID,0,VALID,94.9811,VALID,0,VALID,23.742,VALID,106,VALID,0.879297,
2009-02-04, 02:28:05,VALID,996.902,VALID,0,VALID,95.0193,VALID,0,VALID,23.7616,VALID,102,VALID,0.882813,
2009-02-04, 02:29:05,VALID,996.896,VALID,0,VALID,95.0193,VALID,0,VALID,23.7811,VALID,95,VALID,0.712891,
2009-02-04, 02:30:05,VALID,996.936,VALID,0,VALID,95.0498,VALID,0,VALID,23.7597,VALID,95,VALID,0.615625,
2009-02-04, 02:31:05,VALID,996.909,VALID,0,VALID,95.0498,VALID,0,VALID,23.8024,VALID,98,VALID,0.556641,
2009-02-04, 02:32:05,VALID,996.911,VALID,0,VALID,95.0422,VALID,0,VALID,23.7402,VALID,104,VALID,0.644922,
2009-02-04, 02:33:05,VALID,996.943,VALID,0,VALID,95.0193,VALID,0,VALID,23.7616,VALID,107,VALID,0.630078,
2009-02-04, 02:34:04,VALID,996.936,VALID,0,VALID,94.9964,VALID,0,VALID,23.742,VALID,110,VALID,0.866016,
2009-02-04, 02:35:04,VALID,996.93,VALID,0,VALID,95.0727,VALID,0,VALID,23.742,VALID,116,VALID,0.541797,
2009-02-04, 02:36:04,VALID,996.944,VALID,0,VALID,95.1032,VALID,0,VALID,23.742,VALID,129,VALID,0.757031,
2009-02-04, 02:37:04,VALID,996.939,VALID,0,VALID,95.0803,VALID,0,VALID,23.742,VALID,135,VALID,0.786328,
2009-02-04, 02:38:04,VALID,996.954,VALID,0,VALID,95.0803,VALID,0,VALID,23.7225,VALID,139,VALID,0.648047,
2009-02-04, 02:39:04,VALID,996.966,VALID,0,VALID,95.1032,VALID,0,VALID,23.742,VALID,158,VALID,0.667578,
2009-02-04, 02:40:04,VALID,996.962,VALID,0,VALID,95.1185,VALID,0,VALID,23.742,VALID,162,VALID,0.835156,
2009-02-04, 02:41:04,VALID,996.998,VALID,0,VALID,95.1643,VALID,0,VALID,23.7402,VALID,172,VALID,0.749609,
2009-02-04, 02:42:04,VALID,997.023,VALID,0,VALID,95.1261,VALID,0,VALID,23.7616,VALID,174,VALID,0.730078,
2009-02-04, 02:43:04,VALID,997.029,VALID,0,VALID,95.1337,VALID,0,VALID,23.7402,VALID,176,VALID,0.661719,
2009-02-04, 02:44:04,VALID,997.049,VALID,0,VALID,95.149,VALID,0,VALID,23.742,VALID,176,VALID,0.434766,
2009-02-04, 02:45:04,VALID,997.086,VALID,0,VALID,95.149,VALID,0,VALID,23.7616,VALID,176,VALID,0.621094,
2009-02-04, 02:46:04,VALID,997.087,VALID,0,VALID,95.149,VALID,0,VALID,23.7616,VALID,174,VALID,0.523828,
2009-02-04, 02:47:04,VALID,997.105,VALID,0,VALID,95.1643,VALID,0,VALID,23.7616,VALID,169,VALID,0.640234,
2009-02-04, 02:48:04,VALID,997.144,VALID,0,VALID,95.1566,VALID,0,VALID,23.742,VALID,156,VALID,0.666797,
2009-02-04, 02:49:04,VALID,997.127,VALID,0,VALID,95.1414,VALID,0,VALID,23.7616,VALID,149,VALID,0.601953,
2009-02-04, 02:50:04,VALID,997.154,VALID,0,VALID,95.1185,VALID,0,VALID,23.7616,VALID,158,VALID,0.769531,
2009-02-04, 02:51:04,VALID,997.098,VALID,0,VALID,95.088,VALID,0,VALID,23.7616,VALID,157,VALID,0.732031,
2009-02-04, 02:52:04,VALID,997.126,VALID,0,VALID,95.0193,VALID,0,VALID,23.7616,VALID,157,VALID,0.986719,
2009-02-04, 02:53:04,VALID,997.107,VALID,0,VALID,95.0193,VALID,0,VALID,23.7811,VALID,157,VALID,0.692578,
2009-02-04, 02:54:04,VALID,997.118,VALID,0,VALID,94.8743,VALID,0,VALID,23.7616,VALID,147,VALID,1.08867,
2009-02-04, 02:55:04,VALID,997.147,VALID,0,VALID,94.9201,VALID,0,VALID,23.7616,VALID,144,VALID,0.547266,
2009-02-04, 02:56:04,VALID,997.141,VALID,0,VALID,94.882,VALID,0,VALID,23.7811,VALID,145,VALID,0.608203,
2009-02-04, 02:57:04,VALID,997.125,VALID,0,VALID,94.8591,VALID,0,VALID,23.7811,VALID,158,VALID,0.750391,
2009-02-04, 02:58:04,VALID,997.159,VALID,0,VALID,94.8514,VALID,0,VALID,23.7811,VALID,157,VALID,0.575391,
2009-02-04, 02:59:04,VALID,997.166,VALID,0,VALID,94.8285,VALID,0,VALID,23.7811,VALID,157,VALID,0.348828,
2009-02-04, 03:00:04,VALID,997.193,VALID,0,VALID,94.8362,VALID,0,VALID,23.8006,VALID,153,VALID,0.610156,
2009-02-04, 03:01:04,VALID,997.164,VALID,0.5,VALID,94.8057,VALID,0,VALID,23.7811,VALID,153,VALID,0.452344,
2009-02-04, 03:02:04,VALID,997.184,VALID,0,VALID,94.7751,VALID,0,VALID,23.7811,VALID,153,VALID,0.585547,
2009-02-04, 03:03:04,VALID,997.18,VALID,0,VALID,94.6912,VALID,0,VALID,23.7811,VALID,163,VALID,0.874219,
2009-02-04, 03:04:04,VALID,997.165,VALID,0,VALID,94.6378,VALID,0,VALID,23.7402,VALID,155,VALID,0.816016,
2009-02-04, 03:05:04,VALID,997.174,VALID,0,VALID,94.6454,VALID,0,VALID,23.7616,VALID,160,VALID,0.642578,
2009-02-04, 03:06:04,VALID,997.209,VALID,0,VALID,94.6226,VALID,0,VALID,23.7811,VALID,157,VALID,0.702344,
2009-02-04, 03:07:04,VALID,997.22,VALID,0,VALID,94.6607,VALID,0,VALID,23.7811,VALID,149,VALID,0.55625,
2009-02-04, 03:08:04,VALID,997.251,VALID,0,VALID,94.6912,VALID,0,VALID,23.8006,VALID,139,VALID,0.531641,
2009-02-04, 03:09:04,VALID,997.237,VALID,0,VALID,94.5997,VALID,0,VALID,23.7616,VALID,117,VALID,0.696875,
2009-02-04, 03:10:04,VALID,997.262,VALID,0,VALID,94.6149,VALID,0,VALID,23.7597,VALID,117,VALID,0.550781,
2009-02-04, 03:11:04,VALID,997.275,VALID,0,VALID,94.6912,VALID,0,VALID,23.7616,VALID,116,VALID,0.474219,
2009-02-04, 03:12:04,VALID,997.258,VALID,0,VALID,94.7217,VALID,0,VALID,23.7811,VALID,111,VALID,0.591797,
2009-02-04, 03:13:04,VALID,997.289,VALID,0,VALID,94.7675,VALID,0,VALID,23.7597,VALID,111,VALID,0.473437,
2009-02-04, 03:14:04,VALID,997.295,VALID,0,VALID,94.7446,VALID,0,VALID,23.8006,VALID,78,VALID,0.789844,
2009-02-04, 03:15:04,VALID,997.318,VALID,0,VALID,94.7446,VALID,0,VALID,23.7793,VALID,78,VALID,0.775,
2009-02-04, 03:16:04,VALID,997.277,VALID,0,VALID,94.737,VALID,0.112286,VALID,23.7597,VALID,77,VALID,0.725391,
2009-02-04, 03:17:04,VALID,997.306,VALID,0,VALID,94.6531,VALID,0,VALID,23.7597,VALID,73,VALID,0.794531,
2009-02-04, 03:18:04,VALID,997.324,VALID,0,VALID,94.7217,VALID,0,VALID,23.7811,VALID,59,VALID,0.772656,
2009-02-04, 03:19:04,VALID,997.337,VALID,0,VALID,94.7065,VALID,0,VALID,23.7616,VALID,55,VALID,0.735937,
2009-02-04, 03:20:04,VALID,997.338,VALID,0,VALID,94.5386,VALID,0,VALID,23.742,VALID,55,VALID,0.895312,
2009-02-04, 03:21:04,VALID,997.346,VALID,0,VALID,94.5005,VALID,0,VALID,23.742,VALID,58,VALID,1.05273,
2009-02-04, 03:22:04,VALID,997.319,VALID,0,VALID,94.4318,VALID,0,VALID,23.742,VALID,60,VALID,0.735937,
2009-02-04, 03:23:04,VALID,997.346,VALID,0,VALID,94.4318,VALID,0.112286,VALID,23.742,VALID,62,VALID,0.452734,
2009-02-04, 03:24:04,VALID,997.338,VALID,0,VALID,94.4776,VALID,0,VALID,23.742,VALID,65,VALID,0.498437,
2009-02-04, 03:25:04,VALID,997.309,VALID,0,VALID,94.4623,VALID,0,VALID,23.742,VALID,69,VALID,0.491406,
2009-02-04, 03:26:04,VALID,997.312,VALID,0,VALID,94.531,VALID,0.112286,VALID,23.7207,VALID,69,VALID,0.1875,
2009-02-04, 03:27:04,VALID,997.296,VALID,0,VALID,94.5386,VALID,0,VALID,23.7616,VALID,72,VALID,0.362109,
2009-02-04, 03:28:04,VALID,997.311,VALID,0,VALID,94.531,VALID,0.112286,VALID,23.742,VALID,83,VALID,0.344531,
2009-02-04, 03:29:04,VALID,997.281,VALID,0,VALID,94.5691,VALID,0,VALID,23.7207,VALID,83,VALID,0.241016,
2009-02-04, 03:30:04,VALID,997.289,VALID,0,VALID,94.5768,VALID,0,VALID,23.742,VALID,83,VALID,0.274219,
2009-02-04, 03:31:04,VALID,997.318,VALID,0,VALID,94.5997,VALID,0,VALID,23.742,VALID,85,VALID,0.263281,
2009-02-04, 03:32:04,VALID,997.326,VALID,0,VALID,94.5844,VALID,0,VALID,23.7012,VALID,87,VALID,0.392188,
2009-02-04, 03:33:04,VALID,997.342,VALID,0,VALID,94.5768,VALID,0,VALID,23.7225,VALID,87,VALID,0.363281,
2009-02-04, 03:34:04,VALID,997.309,VALID,0,VALID,94.5386,VALID,0,VALID,23.7225,VALID,87,VALID,0.265234,
2009-02-04, 03:35:04,VALID,997.365,VALID,0,VALID,94.5005,VALID,0,VALID,23.7225,VALID,87,VALID,0.558984,
2009-02-04, 03:36:04,VALID,997.381,VALID,0,VALID,94.5615,VALID,0,VALID,23.7225,VALID,83,VALID,0.612891,
2009-02-04, 03:37:04,VALID,997.444,VALID,0,VALID,94.5997,VALID,0,VALID,23.7225,VALID,75,VALID,0.678125,
2009-02-04, 03:38:04,VALID,997.456,VALID,0,VALID,94.5615,VALID,0,VALID,23.7225,VALID,75,VALID,0.768359,
2009-02-04, 03:39:04,VALID,997.459,VALID,0,VALID,94.5539,VALID,0,VALID,23.7207,VALID,74,VALID,0.808203,
2009-02-04, 03:40:04,VALID,997.506,VALID,0,VALID,94.5386,VALID,0,VALID,23.742,VALID,68,VALID,0.862109,
2009-02-04, 03:41:04,VALID,997.502,VALID,0,VALID,94.6073,VALID,0,VALID,23.7402,VALID,64,VALID,0.844531,
2009-02-04, 03:42:04,VALID,997.537,VALID,0,VALID,94.6454,VALID,0,VALID,23.7616,VALID,65,VALID,0.707422,
2009-02-04, 03:43:04,VALID,997.559,VALID,0,VALID,94.6683,VALID,0,VALID,23.7616,VALID,65,VALID,0.541406,
2009-02-04, 03:44:04,VALID,997.584,VALID,0,VALID,94.6607,VALID,0,VALID,23.7616,VALID,65,VALID,0.509766,
2009-02-04, 03:45:04,VALID,997.588,VALID,0,VALID,94.7141,VALID,0.112286,VALID,23.7616,VALID,65,VALID,0.162891,